Preview of NWS' New Version of Forecast
This preview is not operational and should not be used for support decisions.

Regional Weather Roundup (RWR)

Issued by National Weather Service (NWS)

                            
000
ASCA42 TJSJ 222110
RWRPR 
PUERTO RICO/U.S. VIRGIN ISLANDS HOURLY WEATHER ROUNDUP
NATIONAL WEATHER SERVICE SAN JUAN PR
500 PM AST WED MAY 22 2019

PRZ001>002-007>008-010-222200-
PUERTO RICO
  
CITY           SKY/WX    TMP DP  RH WIND       PRES   REMARKS
SAN JUAN LMM   PTSUNNY   84  73  70 E16       29.93F HX  91           
AGUADILLA      CLOUDY    82  73  74 E12       29.96S                  
$$

VIZ001>002-222200-
U.S. VIRGIN ISLANDS
  
CITY           SKY/WX    TMP DP  RH WIND       PRES   REMARKS
CHARLOTTE AMA  SUNNY     82  73  74 SE14      29.94S                  
CHRISTIANSTED  MOSUNNY   84  72  65 E10       29.94F                  
$$

HOURLY WEATHER ROUNDUP FOR THE NEWS MEDIA
  
CITY           SKY/WX    TMP DP  RH WIND       PRES   REMARKS
ORLANDO        FAIR      88  59  37 E16       30.09R                  
NEW YORK       PTSUNNY   73  39  29 SW9       30.22S                  
NEWARK         PTSUNNY   76  34  21 VRB3      30.20S                  
CHICAGO        PTSUNNY   81  54  39 SW24G33   29.82S                  
HARTFORD       FAIR      61  40  45 SW12      30.21R                  
BOSTON         PTSUNNY   62  37  39 E15       30.21R                  
DALLAS         PTSUNNY   90  70  51 S16G29    29.76F HX  95           
PHILADELPHIA   PTSUNNY   73  37  27 SW9       30.23R                  
LOS ANGELES    PTSUNNY   66  48  52 W23       29.72S                  
WASHINGTON DC  PTSUNNY   70  48  45 S9        30.23F